ARIANE 42P DEB, 44512

Orbit data source: Space-Track

ARIANE 42P DEB, 44512 is space debris in LEO originally from a launch on Mon, 10 Aug 1992 UTC launched from the French Guiana (FRGUI). Debris objects in space refer to the collection of defunct objects orbiting the Earth. Examples of debris include non-operational satellites, rocket bodies, and fragments generated from explosions, collisions, or faulty payload assembly.

Loading next visibility...
Identifier
44512, 1992-052K
Orbit
LEO
Country
Flag of FRFR
Related business
Manufacturer
ArianeGroup
Mission
Spacecraft
Bus & Motor
Unknown
Mass
Unknown
Launch date (UTC)
1992-08-10 (33 years ago)
Launch vehicle
Unknown
Launch site
French Guiana (FRGUI)
Object type
Payload
Rocket body
Debris
Shape & HBR
Unknown shape, 0.1 m
Radar Cross Section
Small (<0.1 m²)

Expand to show TLE details & history
Last TLE update: 21 hours ago

TLE from 21 hours ago
0 ARIANE 42P DEB
1 44512U 92052K   25306.24918782  .00000195  00000-0  91774-3 0  9997
2 44512  65.9145 344.6981 0239767  60.4490 302.0197 12.86128345291183
Epoch: 2025-11-02T05:58Z
TLE epoch observation values (Epoch: 2025-11-02T05:58:49.827Z)
Latitude
-0.00001°
Longitude
-146.77714°
Altitude
1,224.24 km
Speed
7.287 km/s
True Right ascension
22h 58m 47s
True Declination
0° 00' 00"
Sunlit
Object was in full shadow at epoch
Visualization orbit readout
Latitude
Unknown
Longitude
Unknown
Altitude
Unknown
Speed
Unknown
Apparent Right ascension
Unknown
Apparent Declination
Unknown
Sunlit
N/A
Visualization observer readout
Local Sidereal Time
22:28:29
Azimuth
Unknown
Elevation
Unknown
Doppler factor
Unknown
Orbital elements
Apogee altitude
1,499.968 km
Perigee altitude
1,131.032 km
Semi-major axis
7,693.637 km
Eccentricity
0.02398
Inclination
65.9145°
RAAN
344.6981°
Arg. of periapsis
60.449°
True anomaly
299.65325°
Mean anomaly
302.0197°
Eccentric anomaly
300.84019°
Mean motion
3.21622 °/min
Orbital period
111.93 mins
BSTAR
0.00091774
Loading maneuver chart data...
Computing Atmospheric mass density...
Loading historical data...
Loading historical data...
Loading historical data...
Loading historical data...
Loading historical data...
Loading historical data...
Loading historical data...

Documentation

Showing up to 5 results
|